Beaufort, NC

10:25 PM EST on December 10, 2017 (GMT -0500)
Smith

Weather History for KMRH - November, 2011

Change the Weather History Date:

Tuesday, November 22, 2011

  Actual Average Record
Temperature  
Mean Temperature 64 °F -  
Max Temperature 73 °F 63 °F 77 °F (1979)
Min Temperature 55 °F 41 °F 24 °F (1969)
Degree Days  
Heating Degree Days 1    
Growing Degree Days 14 (Base 50)    
Moisture  
Dew Point 59 °F    
Average Humidity 94    
Maximum Humidity 100    
Minimum Humidity 71    
Precipitation  
Precipitation 0.01 in - - ()
Sea Level Pressure  
Sea Level Pressure 30.18 in    
Wind  
Wind Speed 3 mph (ESE)    
Max Wind Speed 9 mph    
Max Gust Speed -    
Visibility 4 miles    
Events Fog    
Averages and records for this station are not official NWS values.
T = Trace of Precipitation, MM = Missing Value Source: NWS Daily Summary

Daily Weather History Graph

Daily Weather History Graph

Search for Another Location

Airport or City:

Trip Planner

Search our weather history database for the weather conditions in past years. The results will help you decide how hot, cold, wet, or windy it might be!

Date:

Astronomy

Nov. 22, 2011 Rise Set
Actual Time 6:47 AM EST 4:58 PM EST
Civil Twilight 6:19 AM EST 5:25 PM EST
Nautical Twilight 5:49 AM EST 5:56 PM EST
Astronomical Twilight 5:18 AM EST 6:26 PM EST
Moon 3:40 AM EST (11/22) 2:52 PM EST (11/22)
Length of Visible Light 11h 05m
Length of Day
10h 11m
Waning Crescent, 9% of the Moon is Illuminated
Nov 22
Waning Crescent
Nov 25
New
Dec 2
First Quarter
Dec 10
Full
Dec 17
Last Quarter

Hourly Weather History & Observations

Time (EST) Temp. Dew Point Humidity Pressure Visibility Wind Dir Wind Speed Gust Speed Precip Events Conditions
12:05 AM 60.8 °F 59.0 °F 94% 30.21 in 2.5 mi ENE 3.5 mph - N/A   Partly Cloudy
12:15 AM 60.8 °F 59.0 °F 94% 30.20 in 3.0 mi ENE 4.6 mph - N/A   Scattered Clouds
12:23 AM 60.8 °F 59.0 °F 94% 30.20 in 3.0 mi ENE 3.5 mph - N/A   Mostly Cloudy
12:49 AM 60.8 °F 59.0 °F 94% 30.18 in 3.0 mi ENE 4.6 mph - 0.01 in   Scattered Clouds
12:56 AM 61.0 °F 60.1 °F 97% 30.19 in 4.0 mi ENE 4.6 mph - 0.01 in   Partly Cloudy
1:56 AM 60.1 °F 59.0 °F 96% 30.19 in 3.0 mi NE 3.5 mph - N/A   Clear
2:03 AM 59.0 °F 59.0 °F 100% 30.19 in 2.0 mi Calm Calm - N/A   Clear
2:14 AM 59.0 °F 59.0 °F 100% 30.19 in 1.8 mi ENE 3.5 mph - N/A   Partly Cloudy
2:26 AM 59.0 °F 59.0 °F 100% 30.18 in 1.0 mi East 3.5 mph - N/A   Mist
2:35 AM 59.0 °F 59.0 °F 100% 30.18 in 1.8 mi ENE 3.5 mph - N/A   Scattered Clouds
2:42 AM 60.8 °F 59.0 °F 94% 30.18 in 2.5 mi East 3.5 mph - N/A   Partly Cloudy
3:04 AM 55.4 °F 55.4 °F 100% 30.19 in 0.2 mi Calm Calm - N/A Fog Fog
3:56 AM 55.9 °F 55.9 °F 100% 30.19 in 1.0 mi Calm Calm - N/A   Overcast
4:03 AM 57.2 °F 55.4 °F 94% 30.19 in 2.0 mi Calm Calm - N/A   Overcast
4:13 AM 57.2 °F 57.2 °F 100% 30.19 in 2.5 mi Calm Calm - N/A   Overcast
4:20 AM 57.2 °F 57.2 °F 100% 30.19 in 1.2 mi Calm Calm - N/A   Overcast
4:29 AM 57.2 °F 57.2 °F 100% 30.19 in 0.8 mi Calm Calm - N/A   Mist
4:45 AM 57.2 °F 57.2 °F 100% 30.19 in 1.2 mi Calm Calm - N/A   Overcast
4:47 AM 57.2 °F 57.2 °F 100% 30.19 in 3.0 mi Calm Calm - N/A   Overcast
4:56 AM 57.9 °F 57.0 °F 97% 30.19 in 4.0 mi Calm Calm - N/A   Overcast
5:05 AM 57.2 °F 57.2 °F 100% 30.19 in 1.8 mi Calm Calm - N/A   Overcast
5:10 AM 57.2 °F 57.2 °F 100% 30.19 in 0.8 mi Calm Calm - N/A   Mist
5:17 AM 57.2 °F 57.2 °F 100% 30.19 in 1.2 mi Calm Calm - N/A   Overcast
5:25 AM 57.2 °F 57.2 °F 100% 30.19 in 1.0 mi Calm Calm - N/A   Mist
5:32 AM 57.2 °F 55.4 °F 94% 30.19 in 2.0 mi Calm Calm - N/A   Overcast
5:53 AM 57.2 °F 57.2 °F 100% 30.19 in 2.0 mi Calm Calm - N/A   Mostly Cloudy
5:56 AM 57.9 °F 57.9 °F 100% 30.19 in 2.0 mi Calm Calm - N/A   Mostly Cloudy
6:05 AM 59.0 °F 57.2 °F 94% 30.19 in 3.0 mi Calm Calm - N/A   Scattered Clouds
6:56 AM 59.0 °F 57.9 °F 96% 30.21 in 3.0 mi Calm Calm - N/A   Clear
7:03 AM 59.0 °F 57.2 °F 94% 30.20 in 2.5 mi Calm Calm - N/A   Clear
7:21 AM 59.0 °F 57.2 °F 94% 30.21 in 3.0 mi Calm Calm - N/A   Clear
7:56 AM 61.0 °F 60.1 °F 97% 30.22 in 3.0 mi Calm Calm - N/A   Clear
9:56 AM 70.0 °F 64.0 °F 81% 30.23 in 9.0 mi East 5.8 mph - N/A   Clear
10:56 AM 71.1 °F 63.0 °F 75% 30.21 in 9.0 mi East 6.9 mph - N/A   Clear
11:56 AM 73.0 °F 63.0 °F 71% 30.18 in 10.0 mi ESE 9.2 mph - N/A   Clear
12:56 PM 73.0 °F 64.0 °F 73% 30.16 in 10.0 mi South 6.9 mph - N/A   Clear
1:56 PM 72.0 °F 64.9 °F 78% 30.14 in 10.0 mi South 6.9 mph - N/A   Clear
2:56 PM 71.1 °F 64.0 °F 78% 30.12 in 10.0 mi South 6.9 mph - N/A   Clear
3:56 PM 68.0 °F 64.0 °F 87% 30.12 in 8.0 mi South 6.9 mph - N/A   Clear
5:56 PM 66.0 °F 64.9 °F 96% 30.12 in 8.0 mi South 8.1 mph - N/A   Clear
9:56 PM 69.1 °F 64.9 °F 87% 30.08 in 10.0 mi South 9.2 mph - N/A   Scattered Clouds
10:56 PM 68.0 °F 64.9 °F 90% 30.06 in 10.0 mi South 8.1 mph - N/A   Clear
11:56 PM 66.9 °F 64.0 °F 90% 30.03 in 10.0 mi South 9.2 mph - N/A   Scattered Clouds